Date,TemperatureHighF,TemperatureAvgF,TemperatureLowF,DewpointHighF,DewpointAvgF,DewpointLowF,HumidityHigh,HumidityAvg,HumidityLow,PressureMaxIn,PressureMinIn,WindSpeedMaxMPH,WindSpeedAvgMPH,GustSpeedMaxMPH,PrecipitationSumIn
2013-2-1,68.3,45.5,30.1,48.0,38.9,28.0,95,81,47,30.22,30.11,5,1,6,0.00
2013-2-2,60.2,43.9,34.8,51.0,40.4,33.0,95,88,67,30.31,30.21,7,1,9,0.01
2013-2-3,60.8,46.2,34.2,49.0,41.7,32.0,95,85,64,30.25,30.14,6,1,8,0.00
2013-2-4,54.3,43.4,35.4,48.0,41.1,34.0,95,91,79,30.18,30.07,7,1,11,0.00
2013-2-5,60.1,48.4,37.2,49.0,43.6,35.0,94,84,63,30.16,30.05,10,1,15,0.01
2013-2-6,60.0,43.4,28.6,46.0,36.8,27.0,95,79,56,30.20,30.10,6,1,11,0.01
2013-2-7,54.9,44.5,35.1,45.0,38.5,33.0,95,82,50,30.16,29.99,8,1,14,0.11
2013-2-8,58.2,42.5,30.7,41.0,33.8,29.0,95,75,36,30.03,29.94,9,2,14,0.01
2013-2-9,60.2,40.0,25.8,37.0,28.8,24.0,93,70,29,30.11,30.02,6,1,9,0.00
2013-2-10,64.9,41.3,25.7,44.0,31.8,24.0,93,73,34,30.13,30.01,7,1,8,0.00
2013-2-11,66.8,44.5,27.9,39.0,32.9,26.0,94,70,29,30.23,30.09,5,1,9,0.00
2013-2-12,61.6,43.4,30.3,45.0,36.5,29.0,94,79,46,30.36,30.23,8,1,10,0.01
2013-2-13,65.8,43.9,28.5,47.0,37.2,27.0,94,80,48,30.35,30.20,7,1,9,0.00
2013-2-14,69.9,47.0,31.0,52.0,39.9,29.0,95,79,48,30.25,30.15,5,1,10,0.00
2013-2-15,71.8,48.2,30.7,48.0,38.6,29.0,95,74,37,30.27,30.20,6,1,8,0.01
2013-2-16,73.0,48.2,33.1,49.0,39.8,31.0,95,77,33,30.25,30.05,6,1,9,0.00
2013-2-17,65.8,46.3,35.4,46.0,38.6,33.0,95,78,37,30.06,29.96,7,1,10,0.01
2013-2-18,54.2,42.2,30.9,44.0,37.4,29.0,95,84,65,30.03,29.92,5,1,12,0.00
2013-2-19,49.5,39.8,29.6,42.0,33.9,27.0,94,81,53,29.97,29.75,19,2,23,0.19
2013-2-20,59.1,41.8,25.0,38.0,31.2,23.0,93,70,34,30.07,29.86,9,2,18,0.00
2013-2-21,62.5,45.6,31.2,39.0,34.2,29.0,91,69,31,30.18,30.06,7,1,10,0.00
2013-2-22,64.6,46.4,29.3,46.0,38.0,27.0,94,75,44,30.25,30.16,9,1,11,0.00
2013-2-23,58.4,48.5,36.5,43.0,33.9,27.0,89,61,32,30.27,30.17,11,4,16,0.00
2013-2-24,67.7,44.5,27.9,36.0,30.5,19.0,93,66,17,30.27,30.14,5,1,10,0.00
2013-2-25,67.6,46.0,29.4,43.0,31.3,8.0,94,67,10,30.27,30.14,15,2,22,0.00
2013-2-26,70.4,45.0,27.3,40.0,31.9,25.0,93,68,18,30.23,30.13,6,1,9,0.00
2013-2-27,69.0,48.0,28.1,45.0,36.6,26.0,94,70,36,30.36,30.21,8,1,10,0.00
2013-2-28,71.3,53.8,40.2,55.0,47.0,38.0,94,79,54,30.44,30.36,5,1,9,0.01